Theta_e
333 332 330 329 328 329 332 335 335 335 335 335 335 335 334 333 332 332 332 331 332 332 332 333 333 333 333 333 332 332 331 330 328 326 325 323 322 321 321 320 321 321 321 322 322 322 321 319 314 312 313 313 312 313 312 312 313 314 315 318 320 320 321
333 332 332 331 330 330 333 335 335 335 335 334 334 334 334 333 333 332 332 331 331 332 333 334 333 333 332 331 330 330 329 327 325 323 322 321 320 320 319 319 319 319 319 319 319 318 318 317 315 314 314 313 312 313 313 313 313 313 315 317 318 318 318
332 333 334 332 330 331 333 335 335 335 335 334 334 334 334 334 333 332 331 331 332 333 333 333 333 331 330 328 328 327 325 323 321 320 320 319 319 318 316 316 316 316 316 315 315 315 315 316 316 315 315 315 313 313 313 314 314 314 315 316 316 315 315
332 332 333 333 332 333 334 335 335 335 334 334 334 334 334 333 333 332 332 331 332 333 333 332 330 327 326 326 325 323 321 319 319 318 318 318 317 315 314 314 314 313 314 314 314 313 313 314 314 314 314 313 312 311 311 312 313 314 316 316 315 313 314
332 331 332 333 333 334 335 335 335 335 334 334 334 334 333 332 332 331 330 330 331 332 331 328 325 324 324 323 321 318 317 317 317 317 317 315 314 314 313 313 313 313 313 312 312 312 313 313 313 313 312 311 310 309 308 309 309 310 313 314 313 312 313
331 331 332 334 334 334 335 335 335 334 334 334 333 332 332 331 331 329 329 330 331 329 325 322 321 321 321 319 317 316 316 316 315 315 314 314 313 313 313 313 313 312 311 311 311 312 313 313 313 312 311 310 309 308 307 307 307 308 309 310 310 310 310
331 331 332 334 334 334 335 335 335 334 333 333 332 331 331 331 330 330 330 331 329 324 319 318 318 318 317 316 315 314 314 314 314 313 313 313 313 313 312 312 311 311 310 310 311 312 312 311 311 310 309 309 308 307 306 306 307 307 307 308 308 308 308
332 332 333 335 334 334 335 335 334 334 333 332 332 332 331 331 331 331 331 329 326 320 315 315 316 315 314 314 313 313 313 313 313 313 313 313 312 312 311 311 310 310 310 310 311 311 310 310 309 309 308 308 307 307 306 306 306 306 307 308 307 307 307
333 334 334 335 334 335 335 334 334 333 332 332 331 331 331 331 331 331 330 328 323 317 314 315 314 314 314 313 313 313 313 313 313 312 312 312 311 310 310 309 309 309 309 309 309 309 309 308 308 307 307 307 307 307 307 306 305 305 306 306 306 306 305
334 335 335 334 334 335 335 334 333 332 332 332 331 331 331 331 331 330 329 326 320 315 314 314 314 313 313 312 312 312 312 312 312 311 310 310 309 309 309 308 308 308 308 308 308 307 307 306 306 306 306 306 307 307 307 307 306 305 305 304 304 304 303
335 335 334 334 334 334 334 333 332 332 332 332 331 330 330 330 330 329 327 323 318 314 313 313 313 313 312 312 312 312 312 312 311 310 309 309 308 308 308 307 307 307 306 306 305 305 305 305 305 305 305 306 307 306 306 306 305 304 303 302 302 302 302
335 334 335 334 334 334 333 333 333 332 332 331 330 329 329 329 329 328 325 320 316 313 313 313 313 313 312 312 312 311 311 310 310 309 308 308 308 307 307 306 305 304 304 303 303 303 303 303 303 303 304 305 305 305 304 303 303 302 301 302 302 302 302
335 335 335 334 334 334 334 333 333 332 331 330 329 329 329 329 328 326 322 317 314 313 313 313 312 312 312 311 310 310 309 309 309 308 308 308 307 306 304 303 302 302 301 301 301 301 301 301 301 302 302 302 302 302 301 301 302 301 301 301 302 302 302
335 335 334 334 334 334 333 333 332 331 331 330 329 329 328 328 326 324 319 315 313 313 312 312 312 311 310 310 309 308 308 308 308 308 307 306 305 303 302 301 300 300 300 300 300 300 300 300 300 300 300 300 300 301 301 301 301 301 301 302 302 302 302
335 334 334 334 334 333 333 332 332 331 330 330 329 328 328 326 325 321 317 313 313 313 312 312 311 310 310 309 307 307 308 308 308 307 306 304 302 300 300 299 299 299 299 299 299 299 299 299 299 299 299 299 300 300 301 301 301 302 302 302 303 303 303
333 333 333 333 332 332 332 331 331 330 330 329 328 327 326 324 322 318 314 313 313 312 312 311 310 309 308 307 307 307 308 308 307 305 303 301 300 299 299 298 298 298 298 298 298 298 298 298 298 298 298 299 300 300 301 301 301 302 302 303 303 303 303
332 332 332 332 331 331 331 330 329 329 329 328 327 325 323 321 317 314 313 313 312 312 311 310 309 308 307 307 307 308 308 307 305 303 300 299 299 298 298 298 298 298 298 298 298 298 298 298 298 298 298 299 300 300 301 301 301 301 301 302 302 302 302
332 332 331 331 330 329 329 329 329 328 327 325 323 321 319 316 314 313 312 312 312 311 310 309 308 307 307 307 308 307 306 304 302 300 299 298 298 297 297 297 297 297 297 298 298 298 298 298 298 298 298 299 299 300 301 301 301 301 301 301 301 301 301
331 331 331 330 329 329 329 328 327 326 324 321 319 317 315 314 313 313 312 312 311 310 309 308 307 307 307 307 307 306 304 301 300 299 298 298 297 297 297 297 297 297 297 298 298 298 298 298 298 298 298 299 299 300 300 300 300 300 300 300 301 301 302
330 330 330 329 329 328 327 326 325 323 320 317 315 314 313 313 313 312 312 311 310 309 308 307 307 307 306 306 305 303 301 299 298 298 297 297 297 296 296 296 296 297 297 297 298 298 298 298 298 298 298 299 299 300 300 299 299 299 300 300 301 301 301
330 330 330 328 328 326 325 323 321 319 316 314 313 313 313 313 312 311 311 310 309 308 307 307 306 306 305 304 302 301 299 298 298 297 297 296 296 296 296 296 296 296 297 297 298 298 298 298 298 298 298 299 299 299 299 298 298 299 300 300 301 301 300
329 329 328 327 326 324 322 319 317 315 314 313 313 312 312 311 311 311 310 309 309 308 307 306 305 304 303 301 300 299 298 298 297 297 296 296 296 296 296 296 296 296 296 297 297 298 298 298 298 297 298 299 299 298 297 297 298 299 300 300 300 301 300
328 328 326 325 323 321 318 316 314 314 313 312 312 311 311 310 310 310 309 308 308 307 305 304 303 302 301 300 299 298 297 297 296 296 296 296 295 295 295 295 295 295 296 296 297 297 297 297 297 297 298 298 298 297 296 297 298 299 300 300 300 300 300
326 325 323 321 319 317 315 313 313 313 312 311 311 310 310 310 309 309 308 307 307 305 304 302 301 300 299 298 298 297 297 296 296 296 296 295 295 295 295 295 295 295 295 296 296 297 297 297 297 297 298 298 296 295 295 297 298 299 300 300 300 300 300
323 322 320 318 317 314 312 312 312 312 312 311 310 310 309 309 308 308 307 307 305 303 302 300 299 298 298 297 297 297 296 296 295 295 295 295 295 295 295 294 294 294 295 295 296 296 296 296 296 297 297 297 295 294 295 297 298 298 299 300 300 300 300
321 319 317 316 314 312 311 312 312 312 311 310 309 309 308 308 308 307 307 306 303 301 300 298 298 297 297 297 296 296 295 295 295 295 295 294 294 294 294 294 294 294 294 294 295 295 295 296 296 296 297 296 294 294 296 297 298 299 299 300 300 300 300
319 317 315 313 312 312 311 311 311 311 311 309 308 308 308 307 307 307 306 304 302 299 298 297 297 297 296 296 296 295 295 295 294 294 294 294 294 294 294 294 293 293 293 293 294 294 295 295 296 296 296 295 294 294 297 298 298 299 299 299 300 300 300
317 315 313 313 312 312 311 311 311 311 310 309 307 307 307 307 306 306 304 302 300 298 297 296 296 296 296 296 295 295 295 294 294 295 294 294 294 294 293 293 293 293 293 293 293 293 294 294 294 295 295 294 293 294 297 298 298 299 299 299 300 300 300
315 313 313 312 312 312 311 311 311 311 310 307 306 306 306 306 306 304 302 300 298 297 296 296 296 295 295 295 295 295 294 294 294 294 294 294 294 294 293 293 293 293 293 293 293 293 293 293 293 293 294 293 293 294 297 298 298 298 299 299 299 300 300
313 313 312 312 312 311 311 310 311 311 309 306 305 306 306 305 305 303 300 298 297 297 296 295 295 295 295 295 295 294 294 294 294 294 294 294 294 293 293 293 293 293 293 293 293 292 292 292 293 293 293 292 292 293 296 297 298 299 299 299 299 299 300
313 312 312 311 311 311 310 310 310 310 307 305 304 305 305 305 303 301 299 298 298 297 297 296 295 295 295 294 294 294 294 294 294 294 294 294 294 293 293 293 293 293 293 293 293 293 293 292 292 292 292 292 292 292 294 296 297 298 299 299 299 299 299
312 312 311 311 311 310 310 310 309 307 304 303 304 304 304 304 302 300 299 298 298 298 297 296 295 294 294 294 294 294 294 294 294 294 294 294 293 293 293 293 293 293 293 293 293 293 293 292 292 292 292 292 292 292 293 294 296 298 298 299 299 299 299
311 311 310 310 310 309 309 309 307 303 301 301 303 304 304 303 302 300 299 299 298 298 296 295 295 294 294 294 294 294 294 294 294 294 294 293 293 293 293 293 293 293 293 293 293 293 293 292 292 292 292 292 292 292 292 293 295 296 297 298 298 298 298
311 310 309 309 309 309 308 306 303 300 299 300 301 302 303 303 302 300 299 299 299 298 297 295 295 294 294 294 294 294 294 294 294 294 294 293 293 293 293 293 293 293 293 293 293 293 293 292 292 292 292 292 292 292 292 292 293 293 294 295 296 297 297
310 309 309 309 308 307 305 302 299 297 298 299 300 301 302 302 302 301 300 300 299 298 297 296 295 294 294 294 294 294 294 294 294 293 293 293 293 293 293 293 293 293 293 292 292 292 292 292 292 292 292 292 292 292 292 292 292 292 292 293 294 295 295
309 309 308 308 307 305 302 298 296 296 297 298 299 300 301 302 301 300 300 299 299 297 296 296 295 294 293 293 294 294 294 294 294 293 293 293 293 293 293 293 293 293 293 292 292 292 292 292 292 292 292 292 292 292 292 292 292 292 292 292 293 293 294
309 308 307 307 306 303 299 296 296 296 296 297 298 299 300 300 300 299 298 298 298 297 296 295 295 294 293 293 294 294 294 294 294 294 293 293 293 293 293 293 293 293 293 292 292 292 292 292 292 292 292 292 292 292 292 292 292 292 292 292 292 293 294
Wind_Speed
13 12 12 12 11 11 12 11 11 11 10 9 8 7 8 8 8 7 6 6 7 8 9 10 11 12 13 15 16 17 18 18 18 18 17 16 14 12 12 12 12 13 15 16 17 18 19 24 29 27 24 24 25 25 25 24 23 21 17 15 15 16 16
14 12 12 12 12 12 12 11 11 11 10 9 8 8 8 8 7 6 6 7 8 9 10 12 13 15 16 16 17 18 19 19 19 18 17 16 15 14 14 14 13 13 14 15 16 16 17 20 24 25 25 26 26 24 22 20 19 17 15 15 16 17 19
15 14 13 12 13 13 12 12 12 12 11 10 10 9 9 8 7 6 6 8 9 11 13 15 17 17 17 17 17 17 17 18 18 18 17 16 16 16 17 16 16 15 15 15 16 16 16 15 18 23 24 25 27 26 22 20 17 14 12 13 15 17 19
16 15 14 14 14 13 12 12 12 13 12 11 11 10 9 8 7 7 8 9 11 13 16 18 19 18 17 16 15 15 15 16 16 16 16 15 16 16 16 16 17 17 17 18 18 18 18 17 19 23 24 25 26 26 24 22 18 14 11 13 15 17 18
16 16 16 15 15 13 12 12 13 13 13 12 12 11 10 8 8 9 10 11 12 15 18 20 19 17 15 14 14 14 14 14 14 14 14 14 14 14 14 15 16 17 17 17 18 17 17 17 19 22 24 25 27 26 25 23 20 17 14 15 18 18 19
16 17 16 15 14 12 11 12 13 14 13 13 12 11 10 10 10 11 11 12 15 18 19 18 16 14 12 12 12 12 12 12 12 12 12 12 12 12 13 14 14 15 16 16 16 15 15 16 17 20 22 24 26 27 26 24 22 20 17 18 19 19 21
17 18 16 14 13 11 11 12 14 14 13 13 12 11 11 10 10 11 12 14 16 17 16 14 12 10 10 10 10 10 10 10 11 11 10 10 11 12 13 13 14 14 14 15 15 15 15 16 17 20 22 25 26 26 26 25 24 22 21 21 21 22 23
17 17 16 13 11 10 11 13 14 14 13 13 11 10 9 9 10 11 13 15 16 14 12 10 8 8 8 8 8 9 9 9 9 9 9 10 11 11 12 13 13 13 14 14 14 14 15 16 18 19 21 24 27 28 29 28 26 25 23 23 25 26 27
17 17 16 13 11 11 12 14 14 13 13 11 10 8 8 9 10 12 14 15 14 11 9 7 7 7 7 7 8 8 7 7 8 9 10 10 11 12 12 12 13 13 13 13 13 13 14 15 17 18 19 21 23 26 29 31 31 29 26 27 30 31 31
17 16 14 12 12 13 14 13 13 12 12 11 9 8 8 10 11 13 14 15 12 9 7 7 7 7 7 7 8 7 7 7 9 10 10 10 11 11 11 12 12 12 12 12 12 13 13 14 15 16 18 18 18 19 21 25 29 29 29 32 33 33 32
16 14 11 11 13 14 14 14 13 12 11 9 8 8 10 11 12 13 15 13 10 7 7 7 6 6 6 6 7 7 8 8 10 10 10 10 10 10 11 11 11 11 11 11 12 12 13 13 14 14 16 16 16 16 16 19 25 28 29 31 31 31 32
15 13 12 12 14 14 14 14 13 12 10 8 8 10 11 12 13 14 14 12 9 7 6 5 4 4 5 6 7 7 8 9 9 9 9 9 9 9 10 10 10 10 11 12 12 13 13 14 14 15 15 14 15 17 16 17 23 26 28 30 30 30 31
15 14 14 14 15 15 15 14 13 11 9 8 9 10 12 13 14 14 13 10 7 5 3 2 2 3 5 6 7 7 8 8 8 8 9 9 9 10 10 11 11 11 12 13 13 13 14 15 15 16 16 16 16 19 20 19 23 27 28 29 29 28 28
15 15 16 16 17 17 16 14 12 10 9 9 10 11 12 13 13 13 10 8 5 2 0 1 2 4 5 6 7 7 7 6 7 8 9 9 10 11 12 12 12 13 13 14 14 14 15 16 17 17 18 19 21 22 23 23 24 29 29 28 28 27 26
14 16 18 19 19 17 14 13 11 9 9 10 11 11 12 12 13 11 9 6 3 1 2 3 4 5 6 6 6 6 5 5 7 8 9 9 11 12 12 13 13 14 14 14 15 16 18 18 19 20 21 22 23 24 24 24 25 29 31 31 30 30 29
15 17 20 19 16 14 13 12 12 11 11 11 11 11 11 12 11 9 7 4 2 3 4 4 5 5 6 6 6 6 5 6 7 8 9 10 12 13 13 13 14 15 15 15 17 18 19 20 21 22 23 24 24 25 24 25 27 29 31 33 33 34 34
16 17 19 16 15 15 14 13 12 11 11 11 11 11 11 11 9 7 5 3 4 4 4 5 5 5 5 5 5 6 6 6 7 8 10 12 13 13 13 14 15 16 16 16 18 20 21 22 23 24 25 26 26 26 27 27 29 30 32 34 34 36 36
16 17 18 18 17 15 14 12 12 12 12 11 11 10 10 9 7 5 5 5 4 4 4 4 4 4 4 5 5 5 6 7 8 10 11 12 13 13 14 15 16 17 17 19 20 22 23 24 25 26 28 28 28 29 30 30 31 32 33 35 36 36 36
18 19 19 17 15 13 12 12 12 12 11 10 9 9 8 7 6 6 6 6 5 4 4 4 4 4 4 5 5 6 7 8 9 11 11 12 13 14 15 16 17 18 18 20 21 22 23 25 26 28 29 30 30 31 32 33 33 34 35 36 37 37 37
20 18 16 14 14 14 14 13 12 11 10 9 8 8 8 8 8 8 7 7 6 4 3 3 3 4 5 6 6 7 8 9 10 11 11 12 14 15 16 17 18 19 19 20 21 23 24 25 26 28 29 30 31 32 33 34 34 35 36 37 38 38 38
18 16 15 16 16 15 14 13 12 11 10 9 9 9 9 11 12 11 9 7 5 3 3 3 4 6 7 7 8 8 9 9 10 11 11 13 15 16 18 19 20 20 20 20 21 22 23 25 26 28 29 29 30 31 32 34 35 36 37 38 38 38 37
16 17 17 17 16 14 14 13 12 12 12 11 11 12 13 13 12 10 8 6 5 4 4 5 7 8 8 8 8 8 9 10 10 11 12 14 16 18 18 19 20 20 20 20 20 20 22 23 26 27 28 29 30 31 32 33 34 36 37 37 37 38 38
18 18 18 16 15 14 14 14 14 14 13 12 13 14 14 11 9 8 7 7 6 5 6 8 10 10 9 9 8 8 9 10 11 12 14 16 17 19 19 20 20 20 19 19 18 19 20 22 24 25 26 27 29 30 31 32 33 35 35 35 35 36 37
19 18 16 15 14 14 15 15 15 14 13 13 13 13 11 10 10 9 8 7 6 6 8 11 11 11 10 9 8 8 9 10 11 13 15 17 18 19 20 20 20 20 19 18 18 18 19 21 22 23 24 25 27 28 28 30 31 32 33 33 33 34 35
17 15 13 12 13 15 16 16 16 13 12 12 13 13 12 12 12 10 8 7 7 9 11 12 12 11 10 9 8 8 9 10 11 14 16 18 19 19 20 20 20 20 20 19 18 18 19 21 21 22 22 24 26 26 25 25 27 29 30 30 30 31 33
16 13 13 15 16 15 15 15 14 12 13 13 13 14 14 13 12 10 8 8 9 12 13 14 13 11 10 10 9 9 9 11 13 15 17 18 18 19 19 19 19 20 20 20 20 19 20 20 20 20 21 23 25 25 24 24 24 26 27 28 28 30 31
14 14 17 19 18 15 14 14 13 12 12 12 14 15 15 13 12 10 9 9 11 14 15 15 13 12 11 10 9 9 10 12 14 15 17 17 18 18 18 18 18 20 20 21 21 21 20 19 19 20 21 23 25 25 25 25 26 26 26 26 27 28 29
16 17 20 21 18 15 14 14 13 12 11 12 14 15 15 13 12 11 10 11 13 16 16 15 14 12 11 10 9 10 11 12 13 15 16 17 17 17 17 17 18 19 20 21 22 21 21 20 20 20 21 23 24 25 26 26 27 27 26 26 27 28 28
19 20 22 20 18 16 15 14 13 11 11 13 15 15 14 13 11 12 13 13 15 17 17 16 14 12 11 10 9 10 10 11 12 14 15 16 16 16 16 16 17 18 19 20 21 21 21 21 21 21 22 22 23 25 25 26 26 26 26 26 27 28 28
20 21 21 20 18 17 16 14 12 10 11 15 17 16 15 14 12 13 14 15 16 17 17 16 14 12 11 10 9 8 9 10 11 12 13 14 14 14 15 16 16 17 18 20 21 21 21 21 21 22 22 22 23 25 25 25 25 25 26 26 27 27 28
21 21 21 20 19 18 16 13 12 11 12 16 18 18 16 16 15 14 15 15 15 15 15 15 13 12 10 9 8 8 8 9 10 11 12 12 13 13 14 15 15 16 17 19 20 20 20 21 21 22 23 22 23 25 26 25 25 25 25 25 26 27 27
20 21 20 19 18 17 15 13 13 14 15 17 19 19 17 17 17 16 16 15 13 12 14 15 13 11 10 9 7 7 7 8 8 9 10 11 11 12 13 13 14 16 17 17 18 18 19 20 21 22 23 23 24 25 25 24 24 24 24 25 26 27 27
20 20 19 18 17 16 14 14 15 17 18 19 20 20 19 17 17 18 17 15 13 11 12 14 13 10 9 8 7 7 7 6 7 8 8 9 10 11 11 12 13 15 16 16 17 17 17 18 20 21 22 23 24 24 24 23 23 23 24 24 25 26 26
19 19 17 17 16 15 14 15 17 19 20 21 21 21 20 18 18 18 17 15 13 12 11 11 11 10 9 8 7 7 6 6 6 6 7 8 9 9 10 11 12 14 14 15 15 16 16 17 18 19 20 22 22 23 23 23 22 22 23 23 24 24 25
19 18 17 16 16 16 16 17 19 20 20 21 21 20 20 19 18 18 17 14 12 12 11 10 9 9 9 7 6 6 5 5 5 5 6 7 7 9 10 11 11 12 13 14 14 14 15 15 16 17 19 20 20 20 21 22 22 23 23 23 24 25 26
19 18 17 17 17 18 18 19 19 19 19 20 20 20 20 19 18 17 16 14 12 11 11 10 9 9 8 7 5 4 4 4 4 4 5 6 7 8 9 10 11 11 12 12 12 13 14 14 15 16 17 17 18 19 20 21 22 23 24 24 25 26 26
19 18 18 19 18 18 19 19 19 18 18 18 19 19 19 18 16 15 15 14 13 12 11 11 10 9 8 7 5 4 3 3 3 3 4 5 6 8 9 9 10 11 11 11 11 12 12 13 14 15 16 16 17 18 19 20 21 23 24 25 25 25 25
Wind_Direction
220 221 214 213 216 218 226 235 239 239 239 241 244 244 241 242 249 255 259 268 278 284 290 298 304 309 310 310 310 310 311 311 311 312 312 315 317 318 319 319 317 312 309 308 306 306 306 304 308 314 315 315 318 321 327 330 332 336 336 330 320 314 311
219 212 209 212 215 221 230 236 238 238 239 242 244 243 240 241 248 256 266 278 284 289 294 301 305 306 307 308 308 308 308 309 310 311 312 314 316 318 320 320 319 316 312 308 304 303 303 304 309 316 321 323 326 333 340 342 343 346 340 329 322 317 312
215 209 206 209 214 222 231 234 236 236 235 238 240 239 238 242 251 261 276 284 288 294 299 303 303 303 303 304 305 305 306 308 310 312 314 316 318 322 325 326 327 328 327 326 325 325 326 322 316 319 327 333 336 344 354 356 357 357 343 328 324 322 319
217 215 211 210 215 221 226 230 233 234 233 234 236 236 238 244 253 265 276 284 292 299 301 302 302 301 301 301 303 305 307 308 310 312 315 319 323 326 329 332 335 338 339 339 339 338 337 334 326 328 335 338 338 346 353 353 355 356 343 327 325 327 325
221 220 217 218 220 223 225 228 232 233 231 230 232 235 241 248 259 270 280 291 300 303 302 301 299 299 300 301 305 308 309 309 310 314 320 324 328 330 334 339 342 342 342 341 340 339 339 339 336 336 339 339 338 343 347 347 347 347 340 327 326 329 327
224 222 220 222 223 225 228 229 234 234 230 228 229 235 243 253 268 284 296 305 307 306 303 300 297 297 300 305 310 313 313 313 316 322 326 330 335 339 342 345 346 345 343 343 344 345 346 346 342 338 340 340 338 338 341 341 342 343 338 330 329 329 327
222 220 223 225 221 221 225 228 232 231 228 229 233 241 252 267 286 302 310 310 309 307 303 299 298 300 306 313 317 319 321 322 325 330 335 342 346 346 347 347 348 349 349 350 351 351 351 349 346 343 341 338 335 334 336 338 340 341 338 333 331 329 328
220 220 224 223 215 215 220 222 225 225 228 236 243 253 267 285 300 307 309 311 310 306 302 303 306 312 318 323 325 327 329 331 333 340 347 352 351 350 350 352 354 356 356 357 356 355 353 349 347 345 341 339 336 334 335 337 338 340 338 334 332 331 332
222 222 218 210 204 209 215 219 221 224 229 238 247 260 277 292 302 306 312 315 311 305 304 309 313 321 329 332 332 332 335 338 345 353 358 359 357 357 358 359 1 2 2 2 360 356 352 349 346 344 343 343 342 338 337 336 336 338 339 336 334 335 337
223 222 211 200 198 202 208 216 222 225 231 239 250 268 286 297 302 309 316 315 309 304 305 307 315 329 337 335 332 335 343 354 3 7 7 6 3 4 6 5 6 6 4 2 358 354 351 349 349 347 345 346 347 345 342 335 332 335 337 338 339 339 340
219 216 206 198 201 204 208 215 222 226 230 239 257 276 290 298 303 312 317 314 304 298 299 306 323 339 339 333 336 348 1 11 14 12 11 10 10 12 10 8 7 6 4 2 359 358 359 357 356 354 352 350 346 344 343 333 329 334 339 341 345 346 345
212 208 202 201 205 207 210 217 220 222 228 245 268 283 292 299 307 314 316 310 296 292 302 317 337 344 339 342 355 7 13 17 14 11 13 16 16 15 12 10 9 8 9 9 7 6 5 4 1 359 356 351 343 341 345 339 333 341 350 350 352 354 351
204 202 201 201 203 205 210 216 218 221 236 260 276 286 293 300 307 311 310 301 291 293 311 337 354 354 357 3 13 16 16 16 13 15 19 18 16 16 17 18 17 19 20 15 13 12 10 9 7 5 3 1 0 359 1 358 346 350 2 1 356 357 354
202 200 199 199 201 202 205 212 218 230 248 265 276 283 290 298 303 304 299 289 283 286 47 78 40 26 21 20 21 17 16 21 22 23 22 19 21 25 25 25 25 27 26 21 21 21 21 20 17 17 18 16 18 15 9 7 358 356 5 8 1 1 360
204 200 198 197 197 198 205 216 226 240 252 262 271 277 285 293 295 292 284 272 255 164 110 75 50 39 31 22 19 21 29 37 31 26 25 27 33 35 32 31 33 33 31 30 32 31 29 29 26 25 26 23 23 21 13 9 5 360 4 8 5 4 7
199 197 195 194 195 202 213 221 226 237 247 255 264 273 282 285 282 275 262 238 179 128 93 67 54 43 30 20 25 41 52 49 37 32 36 40 42 41 37 38 41 42 40 37 38 38 35 33 31 29 29 27 24 22 17 12 9 4 3 6 6 3 5
186 192 195 198 206 212 216 218 224 238 247 255 263 269 273 270 262 253 227 176 135 109 83 68 56 39 29 33 50 63 61 52 48 47 49 48 46 42 40 43 48 48 44 42 41 41 37 34 33 31 29 28 25 22 20 16 13 9 4 5 7 5 2
183 194 198 203 207 208 212 220 231 243 249 256 261 259 255 246 233 209 168 139 120 103 87 71 54 40 46 64 73 71 66 61 60 59 56 52 49 46 44 47 51 49 44 43 42 40 37 34 32 30 27 25 24 23 21 19 16 13 9 6 7 7 5
188 192 195 200 207 214 222 230 236 242 246 248 246 234 221 209 190 165 149 137 121 105 91 74 57 58 77 90 88 78 73 70 67 63 60 56 52 50 50 50 51 49 45 44 42 39 37 33 29 27 25 23 23 21 20 19 16 13 11 9 7 7 7
186 188 197 211 223 227 228 232 235 236 232 222 209 198 189 179 163 154 150 139 124 109 92 78 77 92 100 99 93 85 79 74 69 65 61 59 58 55 54 53 51 49 45 42 40 38 35 32 27 25 24 23 22 20 18 17 16 13 11 11 10 8 8
183 195 211 217 221 224 226 229 226 217 204 188 177 171 168 164 157 152 148 138 129 121 107 96 98 107 108 102 95 89 84 77 70 66 63 62 63 60 57 56 53 49 45 40 37 34 31 29 26 24 24 23 22 20 18 15 14 14 13 12 12 12 11
196 208 214 216 220 225 222 215 203 189 179 167 159 154 153 155 155 154 152 147 141 130 117 112 111 110 106 102 98 91 86 79 72 69 68 67 67 64 61 58 54 50 46 42 38 34 30 27 25 24 24 23 21 19 17 15 13 14 15 15 15 15 15
211 211 214 219 223 219 208 194 181 171 161 151 149 149 149 151 153 154 154 148 138 128 122 121 118 114 109 105 101 92 85 80 75 72 71 71 70 68 64 60 55 51 46 42 39 36 32 29 27 26 25 22 20 18 16 15 15 14 16 18 17 17 18
208 211 217 219 211 202 193 180 169 159 145 140 143 147 149 150 151 152 150 142 132 129 129 125 122 120 117 113 105 95 85 79 77 75 74 73 72 69 66 61 57 52 47 44 41 38 35 33 31 29 26 23 21 19 17 15 14 15 17 20 20 19 21
205 211 213 203 193 190 182 170 162 151 139 139 144 145 147 150 153 154 149 138 133 135 132 128 128 127 124 119 109 96 86 80 78 78 76 74 72 69 66 62 58 53 49 47 45 42 39 36 33 29 26 24 23 22 21 17 14 14 18 21 21 22 22
203 204 195 185 184 182 171 162 155 144 137 139 144 147 151 155 156 153 144 138 139 139 135 133 134 132 127 120 109 97 88 84 81 79 76 74 72 70 66 62 59 55 52 50 48 46 42 37 33 29 26 24 24 24 25 23 20 19 20 21 22 22 22
200 194 184 181 181 176 168 160 150 140 137 141 148 153 155 158 156 148 142 143 144 141 137 136 137 134 127 119 109 99 91 85 81 78 76 73 71 69 67 62 58 55 53 52 50 47 43 37 33 29 26 24 24 25 26 26 24 24 24 22 22 22 22
195 186 179 178 179 175 169 162 150 143 141 144 151 157 158 159 155 146 144 149 148 144 139 138 137 134 128 120 110 100 91 83 80 77 74 71 69 67 64 60 57 54 53 51 49 46 42 38 34 30 28 27 27 29 29 28 26 25 25 24 23 23 23
189 182 177 178 179 172 167 162 155 150 146 148 155 159 160 160 156 148 148 153 152 146 140 138 138 135 130 121 109 98 88 82 78 76 73 70 66 63 61 58 56 54 51 49 47 44 41 39 37 35 33 31 31 34 35 33 31 29 28 27 26 26 26
186 181 178 178 174 169 167 166 162 157 153 154 159 163 163 159 154 150 152 155 153 146 140 138 139 137 130 120 109 98 88 81 77 74 71 68 65 61 60 58 55 52 50 48 45 43 42 41 39 38 37 35 34 36 38 38 35 33 32 31 30 29 30
184 180 178 174 170 170 171 171 166 158 159 161 161 164 165 157 151 153 155 155 153 146 140 138 137 135 128 120 112 100 88 79 75 73 69 66 63 61 59 57 54 51 49 47 44 42 41 40 39 39 38 35 34 35 37 37 37 37 36 35 34 32 31
179 176 174 171 173 176 175 173 165 158 160 164 163 163 165 159 153 154 156 155 154 149 142 137 133 131 126 122 115 101 88 79 73 71 69 65 63 62 59 55 53 50 48 45 42 41 40 39 38 37 37 35 35 34 33 33 34 35 36 36 36 35 33
175 176 175 176 179 181 176 170 164 158 160 164 164 162 164 163 156 153 154 154 152 149 142 135 132 131 128 123 115 102 89 80 73 70 70 68 64 62 58 53 51 49 46 43 39 38 38 37 35 34 35 35 35 34 32 31 30 31 33 34 35 36 35
177 181 182 182 180 177 171 167 163 159 160 163 164 163 163 164 159 154 154 155 151 148 143 136 134 135 133 127 117 105 91 83 78 73 72 69 64 61 57 52 50 48 44 41 36 33 34 34 32 31 31 33 34 33 31 30 29 29 30 31 33 33 33
180 184 183 182 176 168 163 163 161 159 160 163 164 164 164 165 163 159 158 158 155 151 146 143 141 141 139 135 125 112 99 89 84 77 73 68 61 57 52 48 46 44 41 38 33 30 30 30 29 29 28 29 30 29 29 29 28 28 29 29 30 31 30
179 182 179 175 169 162 159 159 158 158 162 164 164 164 165 166 167 165 162 160 159 156 152 152 153 150 148 147 139 124 109 96 86 77 70 65 58 53 47 43 41 39 37 34 29 27 27 26 27 27 26 26 26 25 26 26 27 27 28 29 30 30 29
176 177 172 168 166 161 158 158 156 159 163 165 164 164 165 168 169 167 165 163 164 163 162 161 161 160 159 158 155 146 128 108 95 81 68 61 57 51 44 40 39 35 33 29 25 25 24 24 25 25 24 23 23 23 24 24 24 25 26 27 29 29 28